Location: Antioch Baptist Church
(32.7160°N, 96.7483°W)
Time: 17:25:26
(UTC+00:00)

H-2A R/B - Pass Details

Date: 05 December 2023
Orbit: 732 x 833 km, 98.2° (Epoch: 20 February)

Event Time Altitude Azimuth Distance (km) Brightness Sun altitude
Rises 12:37:45 0° 346° (NNW) 3,169 4.8 -7.9°
Reaches altitude 10° 12:41:41 10° 313° (NW) 2,253 3.8 -7.1°
Maximum altitude 12:43:14 11° 295° (WNW) 2,159 3.7 -6.8°
Drops below altitude 10° 12:44:47 10° 277° (W) 2,263 3.8 -6.5°
Sets 12:48:48 0° 244° (WSW) 3,204 4.8 -5.7°
